Location: Bastogne Gables
(35.1554°N, 78.9900°W)
Time: 21:07:21
(UTC+00:00)

Cosmos 2227 Rocket - Pass Details

Date: 29 October 2020
Orbit: 839 x 845 km, 71.0° (Epoch: 26 November)

Event Time Altitude Azimuth Distance (km) Brightness Sun altitude
Rises 23:42:32 0° 337° (NNW) 3,403 5.6 -16.6°
Reaches altitude 10° 23:44:59 10° 337° (NNW) 2,466 4.8 -17.1°
Maximum altitude 23:50:39 83° 251° (WSW) 854 2.2 -18.2°
Drops below altitude 10° 23:56:17 10° 164° (SSE) 2,455 4.5 -19.4°
Sets 23:58:43 0° 163° (SSE) 3,387 5.2 -19.9°
